Location: Sternwarte Zollern-Alb
(48.2880°N, 8.6780°E)
Time: 02:50:53
(UTC+02:00)

ISS - Pass Details

Date: 30 April 2026
Orbit: 414 x 424 km, 51.6° (Epoch: 19 May)

Event Time Altitude Azimuth Distance (km) Brightness Sun altitude
Exits shadow 04:02:01 27° 289° (WNW) 838 -2.5 -17.7°
Maximum altitude 04:03:31 49° 351° (N) 545 -3.0 -17.5°
Drops below altitude 10° 04:06:49 10° 68° (ENE) 1,503 0.0 -17.2°
Sets 04:08:58 0° 74° (ENE) 2,370 1.1 -16.9°
